Location: Dourges
(50.4364°N, 2.9859°E)
Time: 12:16:28
(UTC+00:00)

Daily predictions for brighter satellites

Satellite Brightness Start Highest point End
(mag) Time Altitude Azimuth Time Altitude Azimuth Time Altitude Azimuth
Okean O Rocket 3.3 19:07:38 10° E 19:10:32 18° ENE 19:13:27 10° NNE
Meteor 1-24 Rocket 3.7 19:07:56 10° N 19:13:23 83° ENE 19:19:00 10° SSE
Cosmos 1538 Rocket 4.1 19:08:33 10° NNW 19:13:43 84° WSW 19:18:53 10° SSE
Cosmos 2333 4.3 19:09:16 10° S 19:14:42 56° ESE 19:20:11 10° NE
CENTAUR R/B 4.4 19:07:52 10° NW 19:15:42 44° WSW 19:24:25 10° S
Cosmos 372 Rocket 4.0 19:10:57 10° S 19:16:06 64° ESE 19:21:18 10° NNE
Cosmos 1680 Rocket 4.1 19:12:14 10° NNW 19:17:10 40° ENE 19:22:03 10° SE
Cosmos 2219 Rocket 2.4 19:15:15 10° S 19:20:34 48° ESE 19:25:57 10° NE
SPOT 5 2.8 19:16:38 10° SSE 19:21:25 87° ENE 19:25:58 10° NNW
CZ-4B R/B 3.6 19:20:08 10° SSE 19:23:43 77° ENE 19:27:26 10° NNW
Cosmos 2074 Rocket 4.0 19:17:50 10° S 19:24:02 75° E 19:30:18 10° NNE
Meteor 1-31 Rocket 2.5 19:22:50 10° SSE 19:26:21 79° ENE 19:29:54 10° NNW
Cosmos 1937 Rocket 3.8 19:21:50 10° S 19:26:51 46° ESE 19:31:54 10° NE
SL-24 R/B - RUBIN 2 3.9 19:26:57 10° NW 19:31:16 54° NE 19:35:18 13° ESE
Cosmos 923 Rocket 4.1 19:27:57 10° NNW 19:33:17 69° ENE 19:38:33 10° SSE
USA 186 3.3 19:34:28 10° ENE 19:34:38 10° ENE 19:34:59 10° NE
Cosmos 2112 Rocket 4.4 19:29:45 10° NNW 19:34:48 46° ENE 19:39:17 13° SE
USA 234 3.3 19:28:32 10° ENE 19:35:08 79° SSE 19:41:42 10° SW
NOSS 2-3 (E) 4.3 19:31:53 10° NW 19:36:40 66° NE 19:42:20 13° SE
COSMOS 2428 3.7 19:33:38 10° SSE 19:38:08 25° ESE 19:42:40 10° NE
NOSS 2-3 (C) 4.4 19:35:28 10° NW 19:40:06 56° NE 19:45:27 14° ESE
Cosmos 1953 2.7 19:36:51 10° SSW 19:40:22 57° WNW 19:43:57 10° N
Meteor 1-15 Rocket 4.2 19:35:03 10° S 19:40:37 89° WNW 19:46:14 10° NNE
PAYLOAD B 4.2 19:35:18 10° SSE 19:40:46 73° ENE 19:46:16 10° NNW
CZ-4B R/B 3.3 19:35:52 10° SSE 19:41:17 62° ENE 19:46:51 10° N
MetOp-B 4.2 19:36:24 10° SSE 19:41:41 62° ENE 19:46:59 10° N
CZ-4B DEB 4.2 19:36:27 10° SSE 19:41:54 84° ENE 19:47:25 10° NNW
CSL-04 Rocket 4.0 19:36:45 10° S 19:42:15 71° WSW 19:47:50 10° NNW
Cosmos 2278 Rocket 3.1 19:38:28 10° NNW 19:43:38 34° NE 19:47:49 14° ESE
NOSS 3-2 (C) 4.1 19:41:26 10° NW 19:48:35 89° NE 19:56:22 14° SE
Cosmos 1610 Rocket 4.5 19:42:46 10° S 19:49:03 71° E 19:55:16 10° NNE
Cosmos 2333 Rocket 3.2 19:43:46 10° SW 19:49:16 50° NW 19:54:48 10° NNE
Cosmos 1703 Rocket 3.5 19:49:15 10° N 19:53:36 85° W 19:57:54 10° S
Geosat 3.9 19:49:39 10° NE 19:54:40 66° ESE 19:59:37 10° SSW
BREEZE-M DEB (TANK) 1.8 19:53:43 10° W 19:56:10 77° S 19:59:33 15° E
Spot 2 Rocket 3.8 19:53:55 16° SE 19:57:41 47° ENE 20:02:30 10° N
Cosmos 1470 Rocket 3.9 19:53:30 10° SSW 19:57:52 68° WNW 20:02:14 10° N
NOSS 2-3 (D) 4.2 19:54:07 10° NW 19:59:00 84° NE 20:03:54 18° SE
Lacrosse 5 rocket 1.3 19:56:09 10° SSW 19:59:05 34° SE 20:00:40 21° E
ARIANE 6 FM1 Upper Stage 2.6 19:56:20 10° SW 20:00:28 83° NW 20:04:31 10° NE
CZ-2C R/B 4.4 20:00:39 12° ENE 20:00:47 12° ENE 20:01:55 10° NE
ERS-1 Rocket 3.0 19:58:18 10° SSE 20:03:18 84° WSW 20:08:21 10° NNW
Nadezhda 3 Rocket 4.5 19:57:40 10° NNW 20:03:46 62° W 20:09:47 10° S
Cosmos 1933 Rocket 3.5 20:00:58 10° S 20:05:17 68° E 20:09:40 10° NNE
Cosmos 1943 Rocket 2.5 20:03:50 10° NNW 20:09:26 55° NE 20:12:59 22° SE
Helios 1A Rocket 3.2 20:07:50 10° N 20:10:59 50° WNW 20:14:07 10° SSW
YAOGAN 11 4.5 20:07:29 10° NNE 20:11:29 40° E 20:13:55 21° SSE
Cosmos 2218 Rocket 4.2 20:06:04 11° SSE 20:11:43 47° E 20:17:33 10° NNE
Meteor 1-12 Rocket 4.4 20:08:46 10° S 20:14:45 87° E 20:20:49 10° NNE
In-Cosmos 22 Rocket 4.0 20:09:27 10° N 20:14:51 80° ENE 20:19:03 17° SSE
USA 59 Rocket 1.4 20:13:16 10° NNW 20:15:38 19° NNE 20:17:16 15° ENE
MOS 1-B 4.3 20:14:21 18° SSE 20:18:39 71° ENE 20:24:26 10° NNW
Cosmos 1733 Rocket 3.9 20:18:20 27° ESE 20:19:10 29° E 20:22:56 10° NNE
NOSS 3-4 (A) 4.4 20:23:14 20° E 20:23:14 20° E 20:26:10 10° ENE
CZ-4B R/B 4.0 20:20:21 26° ESE 20:22:28 39° ENE 20:26:54 10° N
NOSS 3-4 (C) 4.5 20:23:46 20° E 20:23:46 20° E 20:26:40 10° ENE
SeaSat 1 4.1 20:19:54 15° E 20:22:34 23° NE 20:26:20 10° N
Cosmos 494 Rocket 4.0 20:17:50 10° NNW 20:23:01 83° WSW 20:26:29 22° SSE
Okean-O 2.5 20:20:35 25° SSE 20:23:05 71° ENE 20:27:28 10° N
ATLAS 3B R/B 3.9 20:17:20 10° WSW 20:24:53 51° NNW 20:32:34 10° NE
Cosmos 1821 Rocket 4.3 20:22:24 21° SSE 20:26:13 44° E 20:32:09 10° NNE
Cosmos 962 Rocket 4.4 20:21:00 10° S 20:27:15 86° E 20:33:29 10° N
Cosmos 1048 Rocket 4.1 20:22:23 10° NNW 20:27:26 58° ENE 20:29:52 30° SE
Cosmos 2360 Rocket 3.6 20:22:51 10° WSW 20:28:10 42° NW 20:33:32 10° NNE
Timation 2 Rocket 4.1 20:26:39 10° NNW 20:32:51 64° NE 20:36:19 28° SE
Cosmos 1869 Rocket 3.5 20:30:53 10° S 20:35:15 85° W 20:39:42 10° N
Cosmos 2322 Rocket 3.9 20:31:10 10° WSW 20:36:17 35° NW 20:41:25 10° NNE
ADEOS 4.3 20:32:47 11° S 20:37:42 52° W 20:42:48 10° NNW
Terra 2.7 20:34:16 11° S 20:38:38 46° W 20:43:11 10° NNW
Aureole 3 3.8 20:34:44 10° N 20:38:42 51° ENE 20:40:03 38° SE
Meteor 2-21 4.5 20:33:29 10° N 20:39:34 66° ENE 20:42:49 29° SSE
CZ-4 R/B 3.7 20:37:24 10° SW 20:40:13 20° W 20:43:02 10° NW
ATLAS 5 CENTAUR R/B 4.1 20:43:01 10° NNW 20:44:12 11° N 20:45:25 10° NNE
Cosmos 2242 Rocket 3.6 20:40:28 10° N 20:44:58 67° ENE 20:46:21 42° SE
Okean O Rocket 1.8 20:43:57 27° S 20:46:16 67° WSW 20:50:37 10° NNW
SL-08 R/B 3.6 20:42:26 10° N 20:47:18 71° WNW 20:52:10 10° SSW
Cosmos 2237 Rocket 2.7 20:47:31 35° ESE 20:48:09 36° ESE 20:53:17 10° NE
Cosmos 1980 4.1 20:47:57 35° SE 20:48:57 38° ESE 20:54:08 10° NE
Cosmos 1025 Rocket 3.8 20:45:14 10° N 20:49:07 34° ENE 20:49:24 33° E
Cosmos 1125 Rocket 4.4 20:51:20 29° E 20:51:20 29° E 20:55:20 10° NE
CZ-4B R/B 2.4 20:51:35 65° ESE 20:51:58 73° ENE 20:55:30 10° N
Cosmos 2322 3.6 20:46:18 10° SSW 20:52:01 88° ESE 20:57:48 10° NNE
ASTEX 1 3.3 20:50:47 39° SSE 20:52:35 72° E 20:57:29 10° N
Cosmos 2292 Rocket 4.4 20:47:16 10° N 20:52:55 45° ENE 20:54:03 38° ESE
Cosmos 2341 Rocket 4.1 20:47:48 10° SSW 20:54:03 80° W 21:00:24 10° N
Meteor 1-21 Rocket 4.5 20:52:10 10° NNW 20:57:43 67° W 21:01:08 24° S
Cosmos 1400 Rocket 3.6 21:03:02 33° NE 21:03:02 33° NE 21:05:24 10° NNE
USA 186 3.9 21:04:43 16° WNW 21:04:43 16° WNW 21:05:35 10° NW
SPOT 3 Rocket 3.5 21:02:11 41° SSE 21:04:02 86° ENE 21:09:16 10° NNW
Cosmos 2219 Rocket 3.7 20:59:33 10° WSW 21:04:41 36° NW 21:09:51 10° NNE
SOZ 4.5 21:04:57 10° WNW 21:10:17 85° NNW 21:10:17 85° NNW
Meteor 2-21 Rocket 4.3 21:06:30 10° N 21:12:38 80° ENE 21:14:50 42° SSE
USA 245 3.7 21:17:15 50° SW 21:17:55 58° W 21:22:28 10° NNW
USA 234 3.8 21:11:38 10° ENE 21:18:02 58° NNW 21:24:25 10° W
Cosmos 2369 Rocket 3.4 21:14:18 10° NNW 21:19:11 29° NE 21:20:57 25° ENE
Cosmos 1674 Rocket 3.3 21:15:29 10° N 21:19:48 79° E 21:19:57 77° ESE
COSMOS 2428 3.0 21:16:11 10° SW 21:21:53 67° WNW 21:27:38 10° NNE
Helios 1B rocket 4.0 21:23:49 20° NE 21:23:49 20° NE 21:25:37 10° NNE
NOSS 0 Rocket 3.9 21:18:34 10° SSW 21:24:49 88° ESE 21:31:06 10° NNE
Cosmos 1727 Rocket 4.0 21:19:42 10° NNW 21:26:05 81° W 21:28:33 40° S
Cosmos 2278 Rocket 2.6 21:22:26 10° NW 21:27:58 54° WSW 21:29:39 40° SSW
Ariane Rocket 3.0 21:26:52 54° S 21:27:58 76° WSW 21:33:02 10° NNW
USA 238 DEB 4.0 21:21:59 10° NW 21:29:20 77° SW 21:32:16 43° SSE
USA 238 3.9 21:22:09 10° NW 21:29:30 78° SW 21:32:26 43° SSE
Cosmos 2221 Rocket 3.7 21:26:05 10° N 21:30:11 60° ENE 21:30:11 60° ENE
CZ-2C R/B 4.0 21:32:30 29° NW 21:32:30 29° NW 21:34:15 10° NNW
Cosmos 1346 Rocket 3.3 21:28:50 10° N 21:31:34 48° N 21:31:34 48° N
Lacrosse 5 rocket 2.8 21:32:36 10° W 21:34:04 23° W 21:34:04 23° W
Cosmos 1378 Rocket 4.2 21:35:26 10° NNW 21:39:40 47° W 21:40:16 43° WSW
DNEPR-1 R/B 4.3 21:45:57 42° NE 21:45:57 42° NE 21:48:59 10° NE
Meteor 2-8 Rocket 4.4 21:47:10 48° SSW 21:49:01 83° W 21:55:08 10° N
Cosmos 1656 Rocket 3.5 21:44:23 10° NNW 21:49:51 77° ENE 21:50:17 72° ESE
Cosmos 1943 Rocket 3.5 21:48:01 10° NW 21:52:53 30° WSW 21:54:29 26° SW
Cosmos 614 Rocket 4.3 21:48:29 10° NNW 21:53:33 55° WSW 21:53:59 53° SW
SL-16 R/B 3.4 21:58:05 28° ENE 21:58:05 28° ENE 22:01:17 10° NE
SeaSat 1 2.3 21:59:30 85° W 21:59:30 85° W 22:04:23 10° NNW
Cosmos 2123 Rocket 4.0 21:56:24 10° NNW 22:02:39 77° W 22:03:50 60° SSW
USA 59 Rocket 1.3 22:01:06 10° NW 22:02:49 29° WNW 22:02:49 29° WNW
Cosmos 1934 Rocket 3.9 22:03:44 66° S 22:04:43 85° E 22:11:00 10° N
Cosmos 1140 Rocket 4.4 22:03:53 10° NNW 22:08:38 36° NE 22:08:44 36° ENE
NOSS 3-4 (A) 3.2 22:10:28 48° WSW 22:12:00 78° NW 22:17:59 10° NE
NOSS 3-4 (C) 3.2 22:11:01 50° WSW 22:12:30 78° NW 22:18:31 10° NE
Cosmos 2285 Rocket 4.1 22:19:16 61° E 22:19:16 61° E 22:25:13 10° NNE
NOSS 3-1 (C) 4.1 22:19:43 10° NW 22:26:21 65° NE 22:28:44 46° ESE
Cosmos 1535 Rocket 4.3 22:26:51 78° ESE 22:26:54 79° E 22:33:02 10° NNE
ATLAS 5 CENTAUR R/B 4.0 22:25:39 10° NNW 22:27:46 14° NNE 22:29:34 12° NE
RESURS DK-1 4.3 22:30:06 24° NNE 22:30:06 24° NNE 22:31:45 10° NNE
ALOS 2 4.0 22:29:40 33° NE 22:29:40 33° NE 22:32:40 10° N
Cosmos 2237 Rocket 3.0 22:29:12 26° WSW 22:32:04 48° NW 22:37:36 10° NNE
Cosmos 1125 Rocket 4.3 22:31:27 41° W 22:32:36 47° WNW 22:37:42 10° NNE
Cosmos 1605 Rocket 3.8 22:32:45 80° E 22:32:45 80° E 22:38:51 10° NNE
Cosmos 2297 3.7 22:31:56 10° NNW 22:37:29 77° NNE 22:37:29 77° NNE
ARIANE 5 R/B 3.8 22:40:11 39° NNE 22:40:11 39° NNE 22:43:06 10° N
Cosmos 1975 Rocket 4.1 22:38:24 10° NNW 22:41:32 44° NNW 22:41:32 44° NNW
COSMOS 2455 4.0 22:38:05 10° NNW 22:43:39 37° NE 22:45:16 32° ENE
Cosmos 2150 Rocket 4.5 22:54:11 56° NNE 22:54:11 56° NNE 22:58:18 10° NNE
Cosmos 2100 Rocket 4.4 23:00:25 48° ENE 23:00:25 48° ENE 23:05:43 10° NNE
USA 234 3.9 22:54:14 10° E 23:00:32 52° N 23:06:50 10° WNW
Cosmos 2369 Rocket 2.6 22:58:05 10° NW 23:02:43 55° WNW 23:02:43 55° WNW
NOSS 3-1 (A) 4.1 23:10:48 10° NW 23:17:30 64° NE 23:19:58 45° E
Cosmos 1943 4.0 23:21:35 43° ENE 23:21:35 43° ENE 23:25:34 10° NE
SJ 16-02 3.1 23:30:47 10° NNW 23:33:17 30° N 23:33:17 30° N
Cosmos 407 Rocket 4.2 23:30:28 10° NNW 23:34:21 51° NNW 23:34:21 51° NNW
SL-16 R/B 2.9 23:39:53 48° WNW 23:40:08 48° NW 23:45:39 10° NNE
ACS3 Solar Sail 3.6 23:36:19 10° NE 23:40:11 17° E 23:40:25 17° E
Cosmos 1802 Rocket 4.1 23:43:35 69° ENE 23:43:35 69° ENE 23:49:30 10° NNE
CZ-2C R/B 3.0 23:44:18 63° NNE 23:44:18 63° NNE 23:49:10 10° N
Meteor 2-3 Rocket 4.0 23:41:06 10° NNW 23:45:50 63° NNW 23:45:50 63° NNW
Cosmos 1725 Rocket 4.1 23:48:08 68° ENE 23:48:08 68° ENE 23:54:02 10° NNE
